Snowfall_Accumulation
nan nan nan nan nan nan nan nan nan nan nan nan nan nan nan nan nan nan nan nan nan nan nan nan nan nan 0.0 0.0 0.0 0.0 nan nan 0.0 0.0 0.0 0.0 0.0 0.0 0.0 0.0 0.0 0.0 0.0 0.0 0.0 0.0 0.0
nan nan nan nan nan nan nan nan nan nan nan nan nan nan nan nan nan nan nan nan nan nan nan nan nan nan 0.0 0.0 0.0 0.0 0.0 0.0 0.0 0.0 0.0 0.0 0.0 0.0 0.0 0.0 0.0 0.0 0.0 0.0 0.0 0.0 0.0
nan nan nan nan nan nan nan nan nan nan nan nan nan nan nan nan nan nan nan nan nan nan nan nan nan 0.0 0.0 0.0 0.0 0.0 0.0 0.0 0.0 0.0 0.0 0.0 0.0 0.0 0.0 0.0 0.0 0.0 0.0 0.0 0.0 0.0 0.0
nan nan nan nan nan nan nan nan nan nan nan nan nan nan nan nan nan nan nan nan nan nan nan nan nan 0.0 0.0 0.0 0.0 0.0 0.0 0.0 0.0 0.0 0.0 0.0 0.0 0.0 0.0 0.0 0.0 0.0 0.0 0.0 0.0 0.0 0.0
nan nan nan nan nan nan nan nan nan nan nan nan nan nan nan nan nan nan nan nan nan nan nan nan 0.0 0.0 0.0 nan 0.0 0.0 0.0 0.0 0.0 0.0 0.0 0.0 0.0 0.0 0.0 0.0 0.0 0.0 0.0 0.0 0.0 0.0 0.0
nan nan nan nan nan nan nan nan nan nan nan nan nan nan nan nan nan nan nan nan nan nan 0.0 0.0 0.0 0.0 0.0 0.0 0.0 0.0 0.0 0.0 0.0 0.0 0.0 0.0 0.0 0.0 0.0 0.0 0.2 0.1 0.0 0.0 0.0 0.0 0.0
nan nan nan nan nan nan nan nan nan nan nan nan nan nan nan nan nan nan 0.0 0.0 0.0 0.0 0.0 0.0 0.0 0.0 0.0 0.0 0.0 0.0 0.0 0.0 0.0 0.0 0.0 0.0 0.0 0.0 0.0 0.0 0.2 0.2 0.2 0.2 0.0 0.0 0.0
nan nan nan nan nan nan nan nan nan nan nan nan nan nan nan nan nan nan 0.0 0.0 0.0 0.0 0.0 0.0 0.0 0.0 0.0 0.0 0.0 0.0 0.0 0.0 0.0 0.0 0.0 0.0 0.0 0.0 0.0 0.0 0.0 0.1 0.3 0.3 0.0 0.0 0.0
nan nan nan nan nan nan nan nan nan nan nan nan nan nan nan nan nan 0.0 0.0 0.0 0.0 0.0 0.0 0.0 0.0 0.0 0.0 0.0 0.0 0.0 0.0 0.0 0.0 0.0 0.0 0.0 0.0 0.0 0.0 0.0 0.1 0.1 0.3 0.1 0.2 0.0 0.0
nan nan nan nan nan nan nan nan nan nan nan nan nan nan nan nan nan 0.0 0.0 0.0 0.0 0.0 0.0 0.0 0.0 0.0 0.0 0.0 0.0 0.0 0.0 0.0 0.0 0.0 0.0 0.0 0.0 0.0 0.0 0.0 0.1 0.1 0.0 0.0 0.1 0.7 0.6
nan nan nan nan nan nan nan nan nan nan nan nan nan nan nan nan 0.0 0.0 0.0 0.0 0.0 0.0 0.7 0.0 0.0 0.0 0.0 0.0 0.0 0.0 0.0 0.0 0.0 0.0 0.0 0.0 0.0 0.0 0.0 0.0 0.0 0.3 0.0 0.0 0.0 0.1 0.2
nan nan nan nan nan nan nan nan nan nan nan nan nan nan nan 0.0 0.0 0.0 0.0 0.0 0.0 0.1 3.6 0.0 0.0 0.0 0.0 0.0 0.0 0.0 0.0 0.0 0.0 0.0 0.0 0.0 0.0 0.0 0.0 0.0 0.0 0.0 0.0 0.0 0.0 0.1 4.6
nan nan nan nan nan nan nan nan nan nan nan nan nan nan nan 0.0 0.0 0.0 0.0 0.0 0.0 0.3 0.0 0.0 0.0 0.0 0.0 0.0 0.0 0.0 0.0 0.0 0.1 0.7 0.0 0.0 0.0 0.0 0.0 0.0 0.0 0.0 0.2 2.5 0.9 3.7 1.7
nan nan nan nan nan nan nan nan nan nan nan nan nan nan nan 0.0 0.0 0.0 0.0 0.0 0.0 0.0 0.0 0.0 0.0 0.0 0.0 0.0 0.0 0.0 0.0 0.0 0.0 0.1 0.4 0.9 0.4 0.0 0.0 0.0 0.2 0.0 0.3 3.3 9.7 2.6 1.3
nan nan nan nan nan nan nan nan nan nan nan nan nan 0.0 0.0 0.0 0.0 0.0 0.0 0.1 0.1 0.0 0.0 0.0 0.0 0.0 0.0 0.0 0.0 0.0 0.0 0.0 0.0 0.1 2.9 1.3 0.3 0.0 0.0 0.0 0.0 0.1 0.4 0.2 7.1 0.3 1.5
nan nan nan nan nan nan nan nan nan nan nan nan 0.0 0.0 0.0 0.0 0.0 0.0 0.0 nan 0.0 0.0 0.0 0.0 0.0 0.0 0.0 0.0 0.0 0.0 0.0 0.0 0.0 0.1 0.1 0.9 2.8 0.0 0.0 0.0 0.0 0.2 0.3 2.2 1.7 7.5 3.9
nan nan nan nan nan nan nan nan nan nan nan nan 0.0 0.0 0.0 0.0 0.0 0.0 0.2 0.0 0.0 0.0 0.0 0.0 0.0 0.0 0.0 0.1 0.0 0.0 0.0 0.1 0.1 0.0 0.1 0.1 1.6 0.2 0.0 0.0 0.1 0.2 3.3 2.1 3.5 5.2 8.1
nan nan nan nan nan nan nan nan nan nan nan nan 0.0 0.0 0.0 0.0 0.0 0.0 0.1 0.0 nan 0.0 0.0 0.0 0.0 0.0 0.1 0.1 0.3 0.0 0.1 0.0 0.0 0.1 0.5 0.1 3.0 2.4 0.1 0.0 0.0 0.1 1.8 2.7 5.0 2.1 4.8
nan nan nan nan nan nan nan nan nan nan nan 0.0 0.0 0.0 0.0 0.0 0.2 0.0 0.0 0.0 0.0 0.0 0.0 0.0 0.0 0.0 0.1 0.2 4.4 0.0 0.1 0.0 0.0 0.2 0.9 1.2 1.8 2.6 0.9 1.2 0.3 0.4 0.8 2.3 2.9 6.8 4.7
nan nan nan nan nan nan nan nan nan nan nan 0.0 0.0 0.4 0.0 0.0 0.0 0.0 0.1 0.1 0.0 0.0 0.0 0.0 0.0 0.0 0.3 0.4 0.3 3.0 0.1 0.0 0.0 0.1 nan nan 5.2 4.1 6.1 2.2 1.3 2.9 0.4 0.3 2.2 9.8 5.8
nan nan nan nan nan nan nan nan nan nan nan 0.0 0.0 0.6 0.0 0.7 0.1 0.1 0.2 0.2 0.1 0.2 0.0 0.0 0.2 0.4 3.3 6.6 0.3 0.2 0.0 0.0 0.0 nan 0.1 1.0 5.2 1.2 1.7 3.5 2.1 3.1 1.2 0.7 1.7 2.1 4.9
nan nan nan nan nan nan nan nan nan nan nan 0.0 0.5 0.7 0.5 0.5 0.2 0.4 0.5 1.8 0.3 0.2 1.1 0.5 1.2 0.6 0.7 5.4 1.4 5.5 3.0 0.6 1.1 0.2 0.5 2.0 7.6 2.5 3.4 2.1 1.5 5.0 2.5 2.4 1.9 2.2 3.5
nan nan nan nan nan nan nan nan nan nan nan 0.0 0.0 0.1 0.1 nan 0.7 2.8 1.3 0.3 0.4 0.2 0.1 0.2 1.8 1.7 1.6 0.2 0.4 0.4 0.7 0.9 2.0 2.5 2.9 7.1 6.5 8.4 9.3 1.5 2.8 8.7 3.8 1.6 2.3 2.7 5.0
nan nan nan nan nan nan nan nan nan nan nan 0.0 0.0 0.1 2.5 3.5 1.2 0.5 0.5 0.2 0.3 0.2 4.6 0.9 0.2 2.1 0.2 0.1 0.1 0.7 2.0 2.8 4.8 5.0 2.3 7.8 6.1 8.9 15.4 7.5 20.7 4.2 3.5 3.8 3.8 4.1 4.4
nan nan nan nan nan nan nan nan nan nan nan 0.0 0.0 0.1 2.0 8.2 0.7 0.4 0.7 0.8 0.4 0.8 2.2 1.0 0.1 0.2 0.1 1.1 6.5 4.9 2.8 4.0 2.6 1.8 3.9 3.7 9.2 21.3 20.6 8.4 3.4 3.1 3.9 4.3 6.6 4.9 6.6
nan nan nan nan nan nan nan nan nan nan nan 0.0 0.0 0.0 0.5 7.9 2.5 0.6 1.4 0.5 4.2 2.2 1.9 0.6 0.6 0.3 0.5 4.0 6.0 10.0 3.8 1.6 2.6 1.8 0.4 3.4 7.3 16.0 14.0 16.4 8.9 3.5 2.2 4.4 9.0 8.5 3.5
nan nan nan nan nan nan nan nan nan nan nan 0.0 0.0 0.0 0.6 9.9 2.7 1.2 4.3 5.6 1.8 2.9 5.9 1.0 1.8 3.0 1.6 6.5 10.8 10.1 6.5 3.0 8.8 2.0 1.4 3.6 8.5 12.2 7.7 21.2 11.6 3.6 2.6 4.5 17.3 9.0 3.2
nan nan nan nan nan nan nan nan nan nan nan 0.0 0.6 0.5 0.2 4.4 3.7 2.3 1.6 2.7 2.5 3.3 9.1 5.0 9.6 5.6 5.8 10.2 7.5 4.0 7.3 5.5 3.8 3.3 3.1 3.4 9.0 9.3 12.2 17.6 17.9 1.0 1.9 5.9 8.5 3.9 4.1
nan nan nan nan nan nan nan nan nan nan nan nan 1.7 0.8 1.0 3.5 7.1 0.8 1.7 1.9 3.2 4.3 5.0 6.8 5.2 4.4 7.7 8.7 7.0 9.1 6.7 3.6 2.2 6.6 1.1 9.1 7.6 9.9 7.9 9.0 8.3 5.8 6.5 5.7 4.7 3.6 3.2
Water_Equivalent
nan nan nan nan nan nan nan nan nan nan nan nan nan nan nan nan nan nan nan nan nan nan nan nan nan nan 0.00 0.00 0.00 0.00 nan nan 0.00 0.00 0.00 0.00 0.00 0.00 0.00 0.00 0.00 0.00 0.00 0.00 0.00 0.00 0.00
nan nan nan nan nan nan nan nan nan nan nan nan nan nan nan nan nan nan nan nan nan nan nan nan nan nan 0.00 0.00 0.00 0.00 0.00 0.00 0.00 0.00 0.00 0.00 0.00 0.00 0.00 0.00 0.00 0.00 0.00 0.00 0.00 0.00 0.00
nan nan nan nan nan nan nan nan nan nan nan nan nan nan nan nan nan nan nan nan nan nan nan nan nan 0.00 0.00 0.00 0.00 0.00 0.00 0.00 0.00 0.00 0.00 0.00 0.00 0.00 0.00 0.00 0.00 0.00 0.00 0.00 0.00 0.00 0.00
nan nan nan nan nan nan nan nan nan nan nan nan nan nan nan nan nan nan nan nan nan nan nan nan nan 0.00 0.00 0.00 0.00 0.00 0.00 0.00 0.00 0.00 0.00 0.00 0.00 0.00 0.00 0.00 0.00 0.00 0.00 0.00 0.00 0.00 0.00
nan nan nan nan nan nan nan nan nan nan nan nan nan nan nan nan nan nan nan nan nan nan nan nan 0.00 0.00 0.00 nan 0.00 0.00 0.00 0.00 0.00 0.00 0.00 0.00 0.00 0.00 0.00 0.00 0.00 0.00 0.00 0.00 0.00 0.00 0.00
nan nan nan nan nan nan nan nan nan nan nan nan nan nan nan nan nan nan nan nan nan nan 0.00 0.00 0.00 0.00 0.00 0.00 0.00 0.00 0.00 0.00 0.00 0.00 0.00 0.00 0.00 0.00 0.00 0.00 0.04 0.02 0.01 0.00 0.01 0.00 0.00
nan nan nan nan nan nan nan nan nan nan nan nan nan nan nan nan nan nan 0.00 0.00 0.00 0.00 0.00 0.00 0.00 0.00 0.00 0.00 0.00 0.00 0.00 0.00 0.00 0.00 0.00 0.00 0.00 0.00 0.00 0.01 0.05 0.04 0.04 0.03 0.00 0.00 0.00
nan nan nan nan nan nan nan nan nan nan nan nan nan nan nan nan nan nan 0.00 0.00 0.00 0.00 0.00 0.00 0.00 0.00 0.00 0.00 0.00 0.00 0.00 0.00 0.00 0.00 0.00 0.00 0.00 0.00 0.00 0.00 0.00 0.01 0.06 0.05 0.00 0.00 0.00
nan nan nan nan nan nan nan nan nan nan nan nan nan nan nan nan nan 0.00 0.00 0.00 0.00 0.00 0.00 0.00 0.00 0.00 0.00 0.00 0.00 0.00 0.00 0.00 0.00 0.00 0.00 0.00 0.00 0.00 0.00 0.00 0.01 0.01 0.06 0.02 0.04 0.00 0.00
nan nan nan nan nan nan nan nan nan nan nan nan nan nan nan nan nan 0.00 0.00 0.00 0.00 0.00 0.00 0.00 0.00 0.00 0.00 0.00 0.00 0.00 0.00 0.00 0.00 0.00 0.00 0.00 0.00 0.00 0.00 0.00 0.01 0.01 0.00 0.01 0.02 0.12 0.10
nan nan nan nan nan nan nan nan nan nan nan nan nan nan nan nan 0.00 0.00 0.00 0.00 0.00 0.00 0.29 0.00 0.00 0.00 0.00 0.00 0.00 0.00 0.00 0.00 0.00 0.00 0.00 0.00 0.00 0.00 0.00 0.01 0.00 0.05 0.00 0.01 0.00 0.03 0.05
nan nan nan nan nan nan nan nan nan nan nan nan nan nan nan 0.00 0.00 0.00 0.00 0.00 0.00 0.03 1.27 0.00 0.00 0.00 0.00 0.00 0.00 0.00 0.00 0.00 0.00 0.00 0.00 0.00 0.00 0.00 0.00 0.00 0.00 0.00 0.00 0.00 0.01 0.03 0.55
nan nan nan nan nan nan nan nan nan nan nan nan nan nan nan 0.00 0.00 0.00 0.00 0.00 0.01 0.12 0.00 0.00 0.01 0.00 0.00 0.00 0.00 0.00 0.00 0.00 0.01 0.19 0.00 0.00 0.00 0.00 0.00 0.00 0.00 0.01 0.04 0.36 0.13 0.48 0.18
nan nan nan nan nan nan nan nan nan nan nan nan nan nan nan 0.00 0.00 0.00 0.00 0.00 0.00 0.00 0.00 0.00 0.00 0.00 0.00 0.00 0.00 0.00 0.00 0.00 0.00 0.01 0.08 0.18 0.14 0.00 0.00 0.01 0.04 0.00 0.05 0.40 0.63 0.29 0.15
nan nan nan nan nan nan nan nan nan nan nan nan nan 0.00 0.00 0.00 0.00 0.00 0.00 0.03 0.05 0.00 0.00 0.00 0.00 0.00 0.00 0.00 0.00 0.00 0.00 0.00 0.00 0.01 0.36 0.19 0.03 0.00 0.00 0.00 0.00 0.01 0.06 0.03 0.66 0.04 0.18
nan nan nan nan nan nan nan nan nan nan nan nan 0.00 0.00 0.00 0.00 0.00 0.00 0.00 nan 0.00 0.00 0.00 0.00 0.00 0.00 0.00 0.00 0.00 0.00 0.00 0.00 0.00 0.02 0.02 0.15 0.29 0.00 0.00 0.00 0.00 0.03 0.05 0.25 0.23 0.64 0.30
nan nan nan nan nan nan nan nan nan nan nan nan 0.00 0.00 0.00 0.00 0.00 0.00 0.06 0.01 0.00 0.00 0.00 0.00 0.00 0.00 0.00 0.02 0.00 0.00 0.00 0.01 0.01 0.00 0.01 0.02 0.19 0.03 0.00 0.01 0.02 0.04 0.45 0.31 0.51 0.63 0.68
nan nan nan nan nan nan nan nan nan nan nan nan 0.00 0.01 0.00 0.00 0.00 0.00 0.04 0.00 nan 0.00 0.00 0.00 0.00 0.00 0.01 0.02 0.05 0.00 0.02 0.01 0.01 0.02 0.09 0.02 0.41 0.29 0.02 0.00 0.00 0.02 0.25 0.38 0.53 0.20 0.49
nan nan nan nan nan nan nan nan nan nan nan 0.00 0.00 0.00 0.00 0.00 0.06 0.00 0.00 0.00 0.00 0.00 0.00 0.01 0.00 0.00 0.02 0.03 0.49 0.00 0.03 0.00 0.00 0.04 0.13 0.17 0.21 0.24 0.09 0.13 0.03 0.06 0.13 0.33 0.41 0.86 0.48
nan nan nan nan nan nan nan nan nan nan nan 0.00 0.00 0.10 0.00 0.00 0.00 0.01 0.02 0.02 0.00 0.00 0.01 0.00 0.00 0.00 0.05 0.06 0.04 0.41 0.03 0.01 0.00 0.02 nan nan 0.64 0.42 0.55 0.18 0.15 0.27 0.05 0.04 0.26 1.08 0.53
nan nan nan nan nan nan nan nan nan nan nan 0.00 0.02 0.15 0.01 0.16 0.02 0.02 0.04 0.05 0.02 0.03 0.01 0.00 0.03 0.06 0.38 0.82 0.05 0.03 0.01 0.00 0.00 nan 0.02 0.13 0.57 0.12 0.17 0.32 0.19 0.25 0.12 0.07 0.15 0.15 0.41
nan nan nan nan nan nan nan nan nan nan nan 0.00 0.15 0.18 0.12 0.13 0.05 0.08 0.09 0.41 0.05 0.03 0.19 0.09 0.18 0.10 0.09 0.74 0.19 0.65 0.42 0.11 0.14 0.03 0.06 0.31 0.86 0.25 0.31 0.13 0.09 0.38 0.24 0.23 0.23 0.16 0.27
nan nan nan nan nan nan nan nan nan nan nan 0.00 0.00 0.02 0.04 nan 0.11 0.46 0.26 0.06 0.07 0.04 0.02 0.03 0.28 0.31 0.29 0.02 0.07 0.07 0.10 0.11 0.25 0.30 0.36 0.96 0.81 0.92 0.87 0.10 0.24 0.78 0.25 0.10 0.17 0.20 0.36
nan nan nan nan nan nan nan nan nan nan nan 0.00 0.00 0.03 0.62 0.63 0.20 0.09 0.08 0.03 0.06 0.04 0.76 0.16 0.04 0.44 0.05 0.02 0.03 0.17 0.42 0.45 0.68 0.59 0.32 0.99 0.74 1.11 1.64 0.68 1.89 0.30 0.21 0.29 0.31 0.32 0.35
nan nan nan nan nan nan nan nan nan nan nan 0.00 0.00 0.03 0.60 1.31 0.15 0.07 0.10 0.12 0.07 0.13 0.35 0.20 0.03 0.05 0.02 0.24 0.91 0.60 0.33 0.45 0.30 0.23 0.49 0.57 1.25 2.39 1.98 0.71 0.23 0.21 0.27 0.31 0.49 0.37 0.52
nan nan nan nan nan nan nan nan nan nan nan 0.00 0.00 0.00 0.21 1.62 0.39 0.10 0.26 0.08 0.70 0.31 0.29 0.09 0.08 0.05 0.09 0.67 0.85 1.03 0.36 0.15 0.28 0.20 0.06 0.41 0.93 1.99 1.38 1.40 0.66 0.25 0.15 0.37 0.91 0.71 0.28
nan nan nan nan nan nan nan nan nan nan nan 0.00 0.01 0.01 0.13 1.94 0.48 0.18 0.71 0.80 0.33 0.51 0.89 0.16 0.25 0.41 0.26 0.89 1.21 1.03 0.67 0.35 0.82 0.19 0.13 0.36 0.86 1.15 0.72 1.96 0.94 0.28 0.18 0.37 1.50 0.67 0.23
nan nan nan nan nan nan nan nan nan nan nan 0.00 0.10 0.10 0.05 1.29 0.63 0.33 0.24 0.46 0.51 0.67 1.17 0.70 1.25 0.78 0.83 1.16 0.89 0.50 0.82 0.61 0.39 0.30 0.28 0.33 0.79 0.85 1.14 1.57 1.61 0.07 0.16 0.43 0.63 0.30 0.32
nan nan nan nan nan nan nan nan nan nan nan nan 0.26 0.18 0.16 0.70 1.27 0.13 0.26 0.29 0.47 0.63 0.75 1.14 0.74 0.57 1.11 1.14 0.87 1.13 0.76 0.37 0.21 0.55 0.09 0.73 0.58 0.76 0.61 0.68 0.69 0.45 0.45 0.41 0.35 0.24 0.21
SL_Ratio
nan nan nan nan nan nan nan nan nan nan nan nan nan nan nan nan nan nan nan nan nan nan nan nan nan nan nan nan nan nan nan nan nan nan nan nan nan nan nan nan nan nan nan nan nan nan nan
nan nan nan nan nan nan nan nan nan nan nan nan nan nan nan nan nan nan nan nan nan nan nan nan nan nan nan nan nan nan nan nan nan nan nan nan nan nan nan nan nan nan nan nan nan nan nan
nan nan nan nan nan nan nan nan nan nan nan nan nan nan nan nan nan nan nan nan nan nan nan nan nan nan nan nan nan nan nan nan nan nan nan nan nan nan nan nan nan nan nan nan nan nan nan
nan nan nan nan nan nan nan nan nan nan nan nan nan nan nan nan nan nan nan nan nan nan nan nan nan nan nan nan nan nan nan nan nan nan nan nan nan nan nan nan nan nan nan nan nan nan nan
nan nan nan nan nan nan nan nan nan nan nan nan nan nan nan nan nan nan nan nan nan nan nan nan nan nan nan nan nan nan nan nan nan nan nan nan nan nan nan nan nan nan 5.0 nan nan nan nan
nan nan nan nan nan nan nan nan nan nan nan nan nan nan nan nan nan nan nan nan nan nan nan nan nan nan nan nan nan nan nan nan nan nan nan nan nan nan nan nan 5.2 6.0 5.8 5.0 5.3 nan nan
nan nan nan nan nan nan nan nan nan nan nan nan nan nan nan nan nan nan nan nan nan nan nan nan nan nan nan nan nan nan nan nan nan nan nan nan nan nan nan 3.4 4.1 4.6 5.3 5.4 nan nan nan
nan nan nan nan nan nan nan nan nan nan nan nan nan nan nan nan nan nan nan nan nan nan nan nan nan nan nan nan nan nan nan nan nan nan nan nan nan nan nan nan 4.5 4.6 5.1 5.3 0.0 nan nan
nan nan nan nan nan nan nan nan nan nan nan nan nan nan nan nan nan nan nan nan nan nan nan nan nan nan nan nan nan nan nan nan nan nan nan nan nan nan nan 5.0 4.6 4.4 5.0 4.9 5.2 nan nan
nan nan nan nan nan nan nan nan nan nan nan nan nan nan nan nan nan nan nan nan nan nan nan nan nan nan nan nan nan nan nan nan nan nan nan nan nan nan nan 5.0 4.8 5.2 5.0 4.5 4.9 5.5 6.0
nan nan nan nan nan nan nan nan nan nan nan nan nan nan nan nan nan nan nan nan nan nan 2.6 nan nan nan nan nan nan nan nan nan nan nan 0.0 4.3 nan nan 5.0 4.5 0.0 5.1 nan 4.4 nan 5.0 5.3
nan nan nan nan nan nan nan nan nan nan nan nan nan nan nan nan nan nan nan nan nan 2.5 2.8 nan nan nan nan nan nan nan nan nan nan nan nan 2.5 nan nan nan nan nan nan 4.0 nan 4.3 5.1 8.3
nan nan nan nan nan nan nan nan nan nan nan nan nan nan nan nan nan nan nan nan 2.6 2.5 nan nan 2.6 nan nan nan nan nan nan nan 5.1 3.9 nan nan nan nan nan nan nan 4.7 5.7 6.8 7.2 7.7 9.6
nan nan nan nan nan nan nan nan nan nan nan nan nan nan nan nan nan nan nan nan 2.3 nan nan nan nan nan nan nan nan nan nan nan nan 4.5 5.2 5.0 2.8 nan nan 4.7 5.6 7.3 6.0 8.3 15.3 8.8 9.0
nan nan nan nan nan nan nan nan nan nan nan nan nan nan nan nan nan nan nan 2.5 2.8 nan nan nan nan nan nan nan nan nan nan nan 5.0 4.7 8.0 7.2 7.4 nan nan nan 10.0 6.8 6.7 5.9 10.7 7.3 8.4
nan nan nan nan nan nan nan nan nan nan nan nan nan nan nan nan nan nan nan nan nan nan nan nan nan nan 6.7 nan nan nan nan nan 5.7 4.7 3.2 5.8 9.6 nan nan nan 5.0 5.6 6.4 8.5 7.6 11.8 13.3
nan nan nan nan nan nan nan nan nan nan nan nan nan nan nan nan nan nan 3.1 2.8 nan nan nan nan nan 6.7 nan 6.4 6.4 nan 6.7 7.0 4.9 nan 5.7 5.6 8.3 6.2 0.0 5.2 5.1 5.5 7.2 6.9 6.8 8.1 12.0
nan nan nan nan nan nan nan nan nan nan nan nan nan 2.7 nan nan nan 0.0 2.9 nan nan nan nan nan nan nan 5.3 5.8 5.9 6.7 7.5 6.0 4.7 5.8 6.0 4.9 7.4 8.2 9.6 nan nan 6.0 7.2 7.2 9.6 10.4 9.8
nan nan nan nan nan nan nan nan nan nan nan nan nan nan nan nan 3.6 4.0 5.4 nan 0.0 nan 4.3 5.0 5.0 nan 4.7 6.2 8.9 5.7 4.9 nan 6.0 5.4 6.7 7.1 8.9 10.9 10.9 9.4 9.0 6.8 6.7 7.0 7.1 7.9 9.9
nan nan nan nan nan nan nan nan nan nan nan nan 2.3 3.7 0.0 nan nan 2.9 5.0 4.8 nan 4.6 5.3 5.0 4.3 5.4 5.5 6.5 6.6 7.3 5.1 5.7 10.0 6.5 nan nan 8.2 9.7 11.1 11.8 8.9 10.4 8.1 8.0 8.6 9.1 10.9
nan nan nan nan nan nan nan nan nan nan nan nan 2.7 4.0 3.8 4.4 3.6 4.5 4.5 4.5 4.0 4.8 5.6 0.0 4.9 5.9 8.7 8.0 5.6 5.7 5.5 7.5 7.8 nan 6.0 7.4 9.1 10.0 10.0 10.9 11.2 12.4 10.0 9.5 10.8 14.0 11.9
nan nan nan nan nan nan nan nan nan nan nan nan 3.4 4.1 3.7 4.1 4.2 4.8 5.3 4.5 5.9 6.5 6.0 5.5 6.7 6.4 7.0 7.3 7.5 8.4 7.2 5.3 7.9 5.6 7.9 6.3 8.8 9.8 10.8 16.6 16.0 13.2 10.7 10.3 8.3 13.8 13.0
nan nan nan nan nan nan nan nan nan nan nan nan nan 3.5 3.3 nan 6.2 6.0 5.0 5.9 5.9 5.8 5.7 5.2 6.3 5.6 5.6 6.6 6.5 6.5 7.1 8.2 8.2 8.3 8.0 7.4 8.0 9.1 10.7 15.1 11.6 11.1 15.3 15.7 14.1 13.8 13.7
nan nan nan nan nan nan nan nan nan nan nan nan nan 2.9 4.1 5.5 5.8 5.9 6.1 5.2 5.4 5.5 6.1 5.9 4.2 4.8 3.8 5.5 4.7 4.4 4.8 6.3 7.1 8.4 7.1 7.8 8.2 8.0 9.4 11.1 11.0 14.1 16.6 13.1 12.1 12.8 12.7
nan nan nan nan nan nan nan nan nan nan nan nan nan 2.4 3.3 6.2 4.8 5.4 6.4 6.6 6.3 6.1 6.3 4.9 3.8 3.7 4.6 4.9 7.2 8.2 8.5 8.8 8.8 7.7 8.0 6.5 7.4 8.9 10.4 11.8 14.8 14.8 14.5 13.7 13.3 13.0 12.7
nan nan nan nan nan nan nan nan nan nan nan nan nan nan 2.6 4.9 6.3 6.1 5.6 5.9 6.1 6.9 6.5 6.9 7.0 5.5 5.4 6.0 7.1 9.7 10.5 10.6 9.2 9.1 6.2 8.4 7.8 8.0 10.1 11.7 13.5 14.3 14.7 11.7 9.9 11.9 12.6
nan nan nan nan nan nan nan nan nan nan nan nan 4.4 4.2 4.2 5.1 5.6 6.3 6.0 7.0 5.4 5.8 6.6 6.3 7.0 7.2 6.2 7.3 8.9 9.8 9.7 8.5 10.7 10.4 10.8 9.8 9.9 10.6 10.6 10.8 12.3 12.9 14.2 12.1 11.5 13.3 13.7
nan nan nan nan nan nan nan nan nan nan nan nan 5.9 4.9 4.2 3.4 5.9 7.0 6.5 5.8 5.0 5.0 7.7 7.1 7.7 7.2 7.0 8.8 8.3 8.0 9.0 8.9 9.7 10.7 10.9 10.5 11.4 10.9 10.7 11.2 11.2 13.7 11.7 13.5 13.5 12.9 12.8
nan nan nan nan nan nan nan nan nan nan nan nan 6.6 4.7 6.2 5.1 5.6 6.6 6.6 6.4 6.8 6.8 6.6 6.0 6.9 7.8 6.9 7.7 8.1 8.1 8.8 9.8 10.8 12.0 12.8 12.5 13.2 13.1 13.0 13.3 12.0 13.0 14.5 13.9 13.6 14.9 15.4